User: anonymous   Login
Location: Mission Viejo Division
(33.5624°N, 117.5924°W)
Time: 06:55:19
(UTC+00:00)
Language:

Cosmos 2322 - Orbit

View from above orbital plane
View from above orbital plane
View from above satellite
View from above satellite

Ground track
Ground track

The orbit data is extracted from the following two-line orbital elements,

1 23704U 95058A   24202.92273187  .00000198  00000-0  12982-3 0  9995
2 23704  70.9880  13.0833 0007764 141.8617 218.3056 14.13633733481710
Epoch (UTC): 20 July 2024 22:08:44
Eccentricity: 0.0007764
inclination: 70.9880°
perigee height: 841 km
apogee height: 852 km
right ascension of ascending node: 13.0833°
argument of perigee: 141.8617°
revolutions per day: 14.13633733
mean anomaly at epoch: 218.3056°
orbit number at epoch: 48171

The dashed part of the orbit path shows where the satellite is in the earth's shadow,  

DLR